Temperature
16 16 16 17 17 17 18 20 21 20 20 19 19 19 18 17 17 14 12 13 13 14 14 14 14 14 14 14 14 14 14 14 14 14 14 14 14 14 14 14 14 14 14 14 14 14 14 15 15
16 16 16 17 17 17 19 20 20 20 19 19 18 19 18 16 14 13 12 12 13 13 14 14 14 13 13 13 13 13 13 13 13 14 14 14 14 14 14 14 14 14 14 14 14 14 14 14 14
16 16 16 17 17 18 19 20 19 19 18 18 17 17 16 14 13 12 12 12 13 13 13 13 13 13 13 13 13 13 13 13 13 13 13 13 13 13 13 13 14 14 14 14 14 14 14 14 14
15 16 17 17 17 19 19 19 19 18 18 18 17 16 14 13 12 12 13 12 12 12 13 13 13 13 13 13 13 13 13 13 13 13 13 13 13 13 13 13 13 13 13 13 14 14 14 14 14
15 16 16 16 17 18 19 19 19 18 18 18 17 16 12 12 12 12 12 12 12 12 12 13 13 13 13 12 13 12 12 12 12 12 12 13 13 13 13 13 13 13 13 13 13 13 13 13 13
16 17 16 16 18 18 18 19 19 18 18 17 17 15 12 11 12 12 12 12 12 12 12 12 12 12 12 12 12 12 12 12 12 12 12 12 12 12 12 12 13 13 13 13 13 13 13 13 13
15 15 16 17 17 18 18 18 18 18 17 16 16 15 12 11 12 12 11 11 11 11 11 12 12 12 12 12 12 12 12 12 12 12 12 12 12 12 12 12 12 12 12 12 12 12 12 12 13
15 15 16 17 17 17 17 17 16 17 16 15 15 15 12 11 11 11 11 11 11 11 11 11 11 11 11 11 11 11 11 11 11 11 11 11 11 12 12 12 12 12 12 12 12 12 12 12 12
14 14 15 16 17 17 16 16 15 15 14 13 13 12 11 11 11 11 10 10 10 10 10 10 10 11 11 11 11 11 11 11 11 11 11 11 11 11 11 12 12 11 11 12 12 12 12 12 12
14 13 15 15 15 16 15 15 14 14 13 13 12 11 11 11 11 10 10 10 10 10 10 10 10 10 10 10 10 10 10 10 10 10 11 11 11 11 11 11 11 11 11 11 11 11 11 11 11
14 13 14 14 14 14 14 14 14 14 13 13 12 11 10 10 10 10 10 9 9 9 9 9 9 10 10 10 10 10 10 10 10 10 10 10 10 10 10 11 11 11 11 11 11 11 11 11 11
14 13 13 13 12 13 13 13 13 13 12 12 12 11 10 10 10 9 9 9 9 9 9 9 9 9 9 9 9 9 9 9 9 9 10 10 10 10 10 10 10 10 10 10 10 10 10 10 10
13 12 12 11 11 11 12 12 11 11 11 11 10 10 9 9 9 9 8 8 8 8 9 9 9 9 9 9 9 9 9 9 9 9 9 9 10 10 10 10 10 10 10 9 9 9 9 9 10
12 12 11 11 11 11 11 11 10 10 10 10 9 9 8 8 8 8 8 8 8 8 8 8 8 8 8 8 8 8 8 8 8 9 9 9 9 9 9 9 9 9 9 9 9 9 9 9 9
11 11 11 11 11 10 10 9 10 10 10 9 8 8 8 7 7 7 7 7 7 7 8 8 8 8 8 8 8 8 8 8 8 8 8 8 8 9 9 9 9 9 9 9 9 8 8 8 8
11 11 10 11 11 10 9 9 10 10 9 9 8 7 7 7 6 6 6 6 6 7 7 7 7 7 7 7 7 7 7 7 8 8 8 8 8 8 8 8 8 8 8 8 8 8 8 8 8
10 10 11 11 11 10 9 9 9 9 9 9 8 7 7 6 6 6 6 6 6 6 6 6 6 6 6 6 6 7 6 7 7 7 7 7 7 7 8 8 8 8 8 8 7 7 7 7 7
10 11 11 11 10 10 9 9 9 9 8 9 8 7 7 6 5 5 5 5 5 5 6 6 6 6 6 6 6 6 6 6 6 6 7 7 7 7 7 7 7 7 7 7 7 7 7 7 7
10 10 10 11 10 9 9 9 9 8 8 8 8 7 7 6 5 5 5 5 5 5 5 5 5 5 5 5 5 5 5 5 6 6 6 6 6 6 6 6 6 6 6 6 6 6 6 6 6
9 9 9 10 10 9 8 8 9 8 8 8 8 7 6 6 5 4 4 4 4 4 4 4 4 5 4 4 5 5 5 5 5 5 5 5 5 6 6 6 6 6 6 6 5 5 5 5 5
9 8 8 8 8 8 7 7 8 8 7 7 7 6 6 5 4 4 4 4 4 4 4 4 4 4 4 4 4 4 4 4 4 4 4 5 5 5 5 5 5 5 5 5 5 5 5 4 4
8 8 8 8 7 7 7 6 8 7 6 6 6 6 5 5 4 4 3 3 3 3 3 3 3 3 3 3 3 3 3 3 4 4 4 4 4 4 4 4 4 4 4 4 4 4 4 4 4
7 7 7 7 6 6 7 6 6 7 6 5 5 5 5 4 4 3 3 3 3 3 3 3 3 3 3 3 3 3 3 3 3 3 3 3 3 3 3 3 4 3 3 3 3 3 3 3 3
6 6 6 6 5 5 6 6 6 6 6 6 5 5 4 4 3 3 2 2 2 2 2 2 2 2 2 2 2 2 2 2 2 2 2 3 3 3 3 3 3 3 3 3 3 3 3 2 2
6 5 5 5 5 6 7 6 5 6 6 5 4 4 4 3 3 2 2 2 2 2 2 2 2 2 2 2 2 2 2 1 2 2 2 2 2 2 2 2 2 2 2 2 2 2 2 2 1
5 5 5 5 6 6 7 5 5 5 4 4 4 4 3 3 2 2 2 1 1 1 1 1 1 1 1 1 1 1 1 1 1 1 1 1 1 1 1 1 1 1 1 1 1 1 1 1 1
5 5 5 5 4 4 5 6 5 4 3 3 3 3 2 2 2 1 1 1 1 1 1 1 1 1 1 0 0 0 0 1 0 0 1 1 1 1 1 1 1 1 1 1 1 1 0 0 0
4 5 4 4 4 4 6 6 5 3 3 2 1 1 1 1 1 1 1 1 0 0 0 0 0 -0 -0 -0 -0 -0 -0 -0 -0 -0 -0 0 0 0 0 0 0 0 0 0 0 -0 -0 -0 -0
3 3 4 4 4 4 4 5 4 4 3 2 1 1 1 0 0 0 0 0 -0 -0 -0 -0 -0 -1 -1 -1 -1 -1 -1 -1 -1 -1 -1 -1 -1 -1 -1 -0 -1 -1 -1 -1 -1 -1 -1 -1 -1
4 4 3 3 3 3 3 3 3 2 2 2 1 1 0 0 -0 -0 -1 -1 -1 -1 -1 -1 -1 -1 -1 -1 -2 -2 -2 -2 -2 -2 -2 -2 -1 -1 -1 -1 -1 -1 -1 -1 -1 -2 -2 -2 -2
Wind_Speed
12 11 6 3 3 5 7 5 2 2 2 3 5 4 4 4 4 6 4 5 5 5 6 6 7 8 8 8 9 9 9 9 9 10 10 11 11 11 11 12 12 13 13 13 14 14 14 14 14
10 7 3 3 5 7 6 5 4 2 4 5 4 3 4 5 7 7 4 4 4 5 7 7 8 9 9 10 10 10 9 9 9 9 10 10 11 11 11 12 12 13 13 13 13 14 14 14 14
8 6 3 4 5 7 3 2 5 5 5 3 3 4 3 5 6 5 4 3 4 6 8 8 8 9 9 10 10 10 10 9 8 9 10 10 11 11 11 12 12 13 13 13 13 14 14 14 13
4 3 4 5 9 6 3 2 5 6 4 2 4 4 5 6 4 5 4 4 6 7 9 8 8 8 9 10 10 10 9 9 8 9 9 10 10 11 11 12 12 13 13 13 13 13 14 14 13
4 3 6 8 10 5 1 2 4 4 5 4 4 3 5 5 8 7 5 6 6 6 8 8 9 9 9 10 10 10 10 10 9 9 9 9 10 10 11 11 12 12 13 14 13 13 13 13 13
3 4 6 10 9 6 4 2 3 3 3 3 3 3 5 6 7 6 5 6 6 7 7 8 8 8 9 9 9 9 9 10 10 9 9 9 9 10 11 11 11 11 12 13 13 13 13 13 13
4 5 8 9 7 5 4 3 3 3 4 2 1 3 6 6 6 6 5 6 7 7 7 7 8 7 8 8 9 9 10 10 10 9 9 8 8 9 10 10 11 11 11 12 12 12 12 11 12
3 4 8 9 8 5 2 2 1 1 1 2 2 2 5 6 7 6 6 6 6 6 6 6 6 7 7 6 8 9 9 9 9 9 8 7 8 9 9 10 10 10 10 11 11 11 11 11 10
3 5 8 6 5 1 3 2 0 2 2 1 3 5 7 10 8 6 5 5 5 5 5 6 6 6 6 5 6 7 8 8 8 8 8 7 6 7 7 9 10 9 10 10 10 10 10 10 9
4 6 7 3 4 1 2 2 1 2 3 3 3 7 9 9 7 6 5 5 4 4 4 5 5 6 5 5 5 6 6 6 7 7 7 6 5 6 8 8 9 9 9 9 9 9 9 9 7
3 5 4 3 5 3 1 1 2 4 5 4 5 9 8 7 6 5 5 4 4 4 4 4 5 5 5 4 4 5 5 5 6 6 6 6 6 6 7 6 7 7 8 7 7 7 7 7 7
4 4 3 2 3 2 2 2 3 4 1 3 4 9 9 8 6 5 5 5 4 4 4 3 4 5 5 5 4 4 4 4 5 6 7 6 5 5 5 5 4 5 5 5 6 5 6 7 8
6 5 3 2 2 2 3 4 5 4 2 3 4 6 8 7 5 4 4 5 4 4 3 3 4 4 4 4 4 4 4 4 5 6 6 6 5 4 4 4 4 5 5 5 5 5 6 6 7
2 3 4 4 3 3 4 5 6 7 4 4 4 4 5 5 5 4 4 3 3 3 2 2 3 3 4 3 3 3 4 4 5 5 6 6 5 4 4 4 4 5 4 4 5 5 5 5 6
3 4 6 6 6 3 3 8 10 7 7 7 6 5 5 5 5 4 4 3 3 3 2 2 2 3 3 3 3 3 4 4 4 5 5 6 6 5 4 3 3 4 5 5 5 5 5 4 5
5 5 6 5 7 5 4 10 5 6 9 9 7 6 6 6 5 4 4 4 3 3 3 2 2 2 2 3 2 3 3 4 4 5 6 6 5 5 5 3 3 4 4 4 4 3 3 3 3
6 6 7 4 6 6 7 8 2 5 8 8 8 7 7 6 5 4 4 4 3 3 3 3 3 2 2 2 2 3 3 4 5 6 5 5 6 5 5 4 3 4 3 3 3 2 2 3 3
3 5 6 5 5 6 8 10 6 6 7 8 8 7 7 6 5 5 5 4 4 4 4 3 3 2 2 2 1 2 3 3 5 5 5 5 5 5 5 4 4 4 3 2 2 3 3 2 2
7 7 9 6 1 4 9 12 9 7 8 8 8 8 8 7 6 5 5 4 4 4 3 4 3 3 2 1 1 1 1 1 2 3 4 5 4 4 5 4 3 3 2 2 2 2 3 2 2
8 9 9 6 2 5 8 12 11 9 9 7 7 7 6 5 5 6 5 4 4 4 3 3 3 3 3 1 1 1 1 1 2 2 4 4 4 4 4 4 2 2 2 2 2 2 2 1 1
8 8 7 7 6 6 7 9 9 5 6 6 5 5 6 6 6 6 5 4 4 4 4 3 3 3 3 2 2 1 1 1 1 1 1 3 3 3 3 3 3 2 3 2 2 2 2 2 1
6 3 6 6 6 5 4 6 5 4 5 6 6 6 6 5 5 5 5 4 4 3 3 4 4 3 3 3 3 2 2 2 1 1 1 2 2 2 2 2 2 2 2 3 2 1 1 2 2
3 3 5 6 6 7 6 6 7 4 6 7 7 6 5 6 6 5 5 4 3 3 3 3 3 3 2 3 3 3 2 1 1 2 2 2 2 2 2 2 2 2 2 2 2 1 1 1 1
2 3 5 4 3 6 8 7 6 4 5 4 5 6 6 6 6 5 4 4 3 3 3 3 3 2 2 2 2 2 2 2 3 2 2 2 2 1 1 1 1 1 1 2 2 2 2 1 1
2 1 2 2 5 7 4 6 6 1 1 2 4 5 5 6 5 5 5 4 4 4 3 2 3 2 2 2 2 2 2 2 3 3 3 2 2 1 2 1 1 1 1 1 2 2 2 2 2
5 4 3 4 4 4 3 6 4 3 3 3 3 4 4 4 4 4 4 4 3 3 3 3 3 2 2 2 2 2 2 1 1 2 2 3 2 2 2 1 1 1 2 2 2 2 2 3 3
3 5 3 3 5 6 6 4 3 4 3 3 3 3 3 4 3 4 3 3 3 3 3 3 3 3 3 3 2 2 2 1 1 1 1 1 2 2 2 2 2 2 2 2 3 3 3 3 3
3 2 1 4 4 6 7 7 4 4 5 5 4 3 3 3 3 3 3 2 3 3 3 3 3 3 2 2 2 2 2 2 1 1 1 1 2 2 3 3 3 3 2 3 3 3 3 3 3
5 4 4 4 4 4 5 5 0 2 3 4 4 3 3 2 3 2 2 2 2 2 2 3 2 2 2 2 1 1 1 1 1 1 1 1 2 2 3 3 3 3 3 3 3 3 4 4 4
4 6 6 5 6 5 5 7 1 3 2 3 2 2 2 2 2 2 1 1 1 2 2 2 2 2 2 2 1 1 1 1 1 1 1 2 2 2 3 3 3 3 3 3 3 4 4 4 5
Wind_Direction
297 269 246 250 244 234 235 234 202 147 74 47 30 39 56 44 49 110 112 60 60 82 86 85 74 71 70 73 71 78 86 83 79 76 74 73 72 67 64 64 64 63 63 64 65 67 69 69 69
287 276 258 238 239 235 230 209 189 123 97 78 42 37 62 76 76 98 91 51 68 84 90 86 80 78 74 72 71 72 81 83 80 76 76 74 73 69 66 65 65 64 64 66 67 69 70 70 71
269 261 249 237 238 246 238 129 118 108 98 104 85 33 41 69 82 90 81 82 84 85 88 90 87 84 80 74 71 73 76 82 82 78 78 76 75 73 70 68 65 65 67 71 71 72 71 70 68
263 229 239 244 245 248 252 128 114 120 116 125 124 105 81 45 58 84 95 86 82 79 85 91 88 83 81 79 76 73 76 80 82 80 80 78 77 76 74 71 69 67 70 74 75 75 73 70 67
238 241 231 237 243 244 264 99 143 157 156 162 153 133 103 82 79 90 94 81 74 72 79 92 88 83 81 82 78 74 75 77 78 80 81 80 78 78 76 73 71 70 71 73 76 77 75 71 67
240 233 235 234 233 221 210 208 197 183 154 150 154 141 107 112 96 95 91 85 74 72 71 85 85 84 81 81 80 76 77 75 74 74 79 82 80 78 77 72 71 71 73 73 74 76 76 72 66
252 246 245 252 245 218 199 198 218 192 165 147 140 141 129 120 105 106 99 90 80 73 72 74 73 72 77 79 77 78 76 74 73 72 74 79 86 83 79 74 71 70 73 75 75 75 73 71 67
286 275 253 250 245 241 174 175 302 330 131 50 29 149 140 131 120 118 104 91 83 72 66 67 69 66 66 73 78 78 78 74 73 72 72 78 84 89 86 79 73 72 73 75 76 76 73 69 66
275 253 248 252 258 240 133 175 178 44 85 73 53 52 99 120 125 123 115 99 86 73 61 55 56 55 61 74 84 79 78 74 72 71 70 72 79 86 91 84 79 75 76 76 76 74 70 65 63
229 240 246 295 328 341 150 176 178 178 182 186 122 95 106 122 133 136 133 123 107 87 66 50 51 46 48 65 75 78 77 74 69 65 64 62 71 79 82 90 86 81 79 78 74 70 65 58 54
235 252 271 320 338 341 292 248 222 219 220 209 169 146 134 133 139 141 134 122 106 94 71 53 47 46 42 45 62 67 68 69 67 61 58 65 65 73 74 75 83 81 77 69 69 67 59 56 50
250 271 291 307 342 319 274 264 253 254 247 42 97 139 140 146 149 146 135 116 103 90 73 52 42 47 41 43 50 63 60 59 62 57 62 61 60 58 65 66 77 81 72 65 61 56 53 53 53
238 252 273 297 312 301 281 262 263 244 166 82 95 124 144 151 148 136 121 111 107 99 81 60 42 46 41 41 43 53 55 58 65 60 58 60 56 44 52 64 66 71 73 66 54 49 48 48 52
271 255 247 244 242 246 251 253 251 233 174 150 152 156 153 152 147 132 120 117 114 112 103 85 59 48 45 51 48 51 54 58 64 64 62 61 57 51 46 54 59 61 74 72 63 55 50 51 54
254 258 248 226 215 211 248 255 234 211 179 181 182 176 167 162 150 146 139 133 126 122 108 95 88 58 50 53 50 54 58 65 63 63 68 67 62 55 52 47 61 56 65 83 77 66 58 52 54
232 241 245 207 193 182 206 257 234 176 184 195 191 186 180 173 160 149 141 138 135 130 115 103 90 70 53 54 55 54 60 69 70 68 64 61 62 65 63 51 51 62 66 73 83 88 78 60 50
218 240 245 216 191 185 214 255 206 172 190 202 196 192 182 176 170 160 148 145 148 141 129 121 108 96 72 59 54 62 63 67 69 68 61 56 56 65 73 59 47 69 67 71 84 91 99 85 57
245 258 269 250 186 203 232 255 236 210 209 214 200 194 188 187 183 165 159 151 144 134 133 132 119 103 91 85 81 77 68 62 66 66 60 62 58 62 72 68 58 64 80 82 101 107 93 99 89
287 285 280 283 194 228 246 260 256 222 217 219 206 196 195 192 174 162 157 155 148 140 143 147 139 134 127 134 154 151 135 100 78 64 71 68 64 66 70 71 75 67 94 99 104 108 108 98 100
267 275 280 287 250 257 264 267 261 235 219 215 207 197 197 190 174 171 165 161 163 164 165 159 150 148 148 152 170 164 144 134 107 77 75 73 69 70 75 70 85 87 100 100 97 109 114 132 133
256 258 272 284 297 262 278 280 250 237 207 203 209 200 193 192 188 181 175 173 168 169 175 171 163 159 160 142 124 102 107 113 101 110 100 67 68 72 71 80 83 91 111 132 121 113 127 163 201
268 288 281 281 285 266 233 280 256 217 201 201 204 206 193 184 179 179 176 170 172 175 169 168 162 163 164 150 154 158 174 182 189 176 150 96 84 79 79 87 92 97 103 128 143 98 125 154 181
280 333 288 272 267 277 241 251 266 218 224 215 200 196 185 173 173 176 174 169 167 160 158 162 155 159 167 168 177 187 181 189 161 152 152 146 123 109 102 94 91 100 106 127 130 122 147 154 189
299 292 267 250 252 258 225 217 268 229 222 199 181 186 183 169 168 165 157 146 146 146 150 157 166 171 168 173 183 187 188 189 170 169 180 177 167 151 149 140 115 116 112 136 151 171 182 198 204
233 259 286 239 223 241 199 212 246 202 107 149 169 175 171 164 162 159 156 158 154 153 155 159 167 179 175 176 183 196 198 193 187 183 190 191 191 202 185 153 147 154 158 182 182 192 201 209 213
220 214 220 248 259 282 225 229 236 130 96 88 100 133 146 146 154 156 158 164 166 166 163 163 173 182 181 181 189 195 199 197 203 202 189 194 200 201 192 181 201 212 212 218 205 207 222 220 218
210 221 244 278 285 277 253 237 228 162 152 159 151 144 149 148 145 148 149 159 170 174 177 182 177 180 185 188 186 190 189 180 206 229 218 196 187 198 194 202 213 224 221 223 210 216 223 223 225
253 279 204 214 249 261 264 245 235 203 209 196 183 181 175 155 149 148 158 172 173 172 172 170 169 185 192 191 195 195 188 185 197 200 235 226 195 200 196 200 210 217 220 225 220 223 224 225 230
196 217 221 232 239 245 268 259 4 164 172 182 192 188 187 190 192 171 171 175 163 155 162 166 175 178 189 202 205 192 196 195 183 202 229 246 224 198 200 202 208 213 213 216 219 223 220 225 234
216 215 201 218 241 231 255 265 31 68 106 142 170 181 190 193 192 177 169 158 152 165 175 180 182 185 200 203 202 197 199 196 188 208 233 249 249 225 214 213 214 219 219 219 220 227 225 223 228
Height
1496 1497 1499 1501 1502 1501 1497 1488 1484 1486 1489 1492 1493 1494 1497 1502 1506 1517 1517 1515 1516 1517 1518 1519 1520 1522 1523 1524 1525 1526 1527 1528 1529 1529 1530 1530 1530 1530 1531 1531 1531 1530 1530 1530 1531 1530 1531 1531 1532
1495 1498 1500 1500 1501 1501 1494 1485 1486 1488 1491 1493 1495 1497 1499 1505 1508 1511 1513 1514 1515 1517 1518 1519 1521 1522 1523 1524 1525 1526 1527 1528 1529 1530 1530 1530 1531 1531 1531 1531 1531 1531 1531 1531 1532 1532 1532 1533 1534
1495 1497 1499 1497 1495 1495 1490 1484 1486 1489 1492 1494 1498 1500 1503 1507 1509 1511 1512 1514 1515 1517 1518 1519 1521 1522 1523 1524 1525 1526 1527 1529 1529 1530 1531 1531 1531 1532 1532 1532 1532 1532 1532 1533 1533 1534 1534 1535 1536
1496 1498 1498 1496 1492 1487 1486 1486 1487 1490 1494 1496 1498 1502 1505 1509 1509 1510 1512 1514 1515 1516 1517 1519 1520 1522 1523 1524 1526 1527 1528 1529 1529 1530 1531 1531 1532 1532 1533 1533 1533 1533 1534 1534 1534 1535 1536 1536 1537
1496 1496 1496 1494 1489 1486 1485 1486 1488 1490 1493 1496 1498 1502 1506 1509 1509 1510 1511 1513 1515 1516 1517 1519 1520 1522 1523 1524 1525 1526 1527 1528 1529 1530 1531 1532 1532 1533 1533 1534 1534 1534 1535 1535 1536 1536 1537 1538 1538
1495 1493 1494 1492 1486 1485 1485 1487 1488 1490 1493 1496 1498 1502 1507 1508 1508 1510 1511 1513 1515 1516 1517 1518 1520 1521 1522 1524 1525 1526 1527 1528 1529 1530 1531 1532 1532 1533 1534 1535 1535 1535 1535 1536 1536 1537 1538 1538 1539
1494 1491 1490 1485 1485 1484 1485 1487 1488 1490 1493 1496 1498 1502 1506 1507 1508 1509 1511 1513 1514 1515 1516 1518 1519 1520 1522 1523 1524 1525 1526 1527 1528 1529 1530 1531 1532 1533 1534 1535 1535 1536 1536 1536 1537 1537 1538 1539 1540
1491 1490 1486 1484 1484 1484 1485 1488 1490 1491 1493 1496 1498 1500 1504 1505 1506 1508 1510 1512 1514 1515 1516 1517 1518 1520 1520 1522 1523 1524 1525 1526 1527 1528 1530 1531 1532 1533 1534 1534 1535 1536 1536 1537 1537 1538 1539 1539 1540
1491 1492 1487 1483 1483 1484 1486 1488 1491 1492 1494 1496 1498 1500 1501 1503 1505 1507 1509 1511 1513 1514 1515 1516 1517 1519 1519 1521 1522 1523 1524 1525 1526 1528 1529 1530 1531 1532 1533 1534 1534 1535 1536 1537 1537 1538 1539 1539 1540
1489 1490 1485 1485 1484 1485 1487 1489 1491 1492 1494 1496 1498 1500 1501 1502 1504 1506 1508 1509 1511 1512 1514 1515 1516 1517 1518 1520 1521 1522 1523 1524 1525 1526 1527 1529 1530 1531 1532 1533 1534 1535 1536 1537 1537 1538 1539 1539 1540
1486 1486 1485 1486 1486 1486 1488 1489 1491 1491 1493 1495 1496 1498 1500 1502 1504 1505 1506 1508 1509 1511 1512 1513 1515 1516 1517 1518 1519 1520 1522 1523 1524 1525 1526 1527 1529 1530 1531 1532 1533 1534 1535 1536 1537 1537 1538 1539 1540
1486 1485 1486 1487 1488 1488 1489 1490 1491 1491 1493 1493 1494 1496 1498 1500 1501 1503 1505 1506 1507 1509 1510 1512 1513 1514 1515 1516 1517 1518 1520 1521 1522 1523 1525 1526 1527 1528 1529 1530 1531 1532 1533 1534 1535 1536 1538 1539 1540
1486 1486 1487 1487 1488 1489 1490 1490 1491 1490 1491 1492 1493 1495 1496 1498 1500 1502 1503 1504 1506 1507 1508 1510 1511 1512 1513 1514 1515 1517 1518 1519 1521 1522 1523 1524 1525 1526 1527 1529 1530 1531 1532 1533 1534 1536 1537 1538 1539
1485 1486 1486 1487 1488 1489 1489 1489 1490 1487 1490 1491 1492 1494 1495 1496 1498 1499 1501 1502 1503 1505 1506 1507 1509 1510 1511 1512 1514 1515 1516 1517 1519 1520 1521 1522 1523 1524 1525 1527 1528 1529 1531 1532 1533 1534 1535 1537 1538
1486 1486 1485 1485 1486 1487 1489 1488 1485 1484 1487 1489 1490 1492 1493 1494 1496 1497 1498 1500 1501 1502 1504 1505 1506 1507 1509 1510 1512 1513 1514 1515 1516 1518 1519 1520 1521 1522 1523 1524 1525 1527 1528 1530 1531 1533 1534 1535 1536
1485 1485 1485 1481 1483 1485 1491 1485 1480 1481 1484 1485 1488 1489 1491 1492 1493 1495 1496 1497 1499 1500 1501 1502 1504 1505 1506 1508 1509 1510 1512 1513 1514 1515 1516 1517 1518 1519 1521 1522 1523 1524 1526 1527 1529 1530 1532 1533 1534
1484 1483 1480 1480 1480 1482 1486 1481 1480 1480 1481 1482 1484 1486 1488 1490 1491 1492 1493 1495 1496 1497 1498 1500 1501 1502 1504 1505 1507 1508 1509 1511 1512 1513 1514 1515 1516 1517 1518 1520 1521 1521 1523 1525 1526 1528 1529 1530 1531
1482 1480 1477 1477 1478 1480 1482 1479 1477 1478 1478 1479 1481 1483 1485 1487 1488 1490 1491 1492 1493 1494 1496 1497 1499 1500 1501 1503 1504 1505 1506 1508 1509 1510 1511 1512 1513 1514 1515 1517 1518 1519 1520 1522 1524 1525 1526 1528 1529
1479 1479 1479 1476 1476 1479 1479 1476 1474 1474 1475 1476 1477 1479 1482 1483 1486 1487 1488 1489 1490 1491 1493 1494 1496 1497 1498 1499 1500 1502 1503 1505 1506 1507 1508 1510 1510 1512 1513 1514 1515 1516 1517 1519 1520 1522 1523 1524 1526
1480 1481 1479 1476 1476 1478 1477 1474 1469 1469 1470 1471 1473 1475 1478 1480 1482 1483 1485 1486 1487 1488 1490 1491 1493 1494 1495 1496 1497 1499 1500 1502 1503 1504 1505 1507 1508 1509 1510 1511 1512 1513 1514 1516 1517 1518 1519 1521 1523
1479 1481 1481 1480 1478 1477 1479 1474 1466 1464 1465 1468 1470 1471 1474 1476 1478 1480 1482 1483 1484 1485 1487 1488 1490 1491 1492 1493 1495 1496 1497 1499 1500 1501 1502 1503 1505 1506 1507 1508 1509 1510 1511 1512 1514 1515 1516 1518 1520
1480 1479 1479 1480 1484 1481 1478 1480 1463 1461 1463 1465 1467 1469 1470 1473 1475 1477 1478 1480 1481 1483 1484 1486 1486 1488 1489 1490 1491 1492 1493 1494 1495 1497 1498 1500 1501 1502 1504 1505 1506 1507 1508 1509 1511 1512 1514 1515 1516
1480 1480 1480 1481 1482 1483 1477 1481 1467 1461 1461 1461 1463 1465 1467 1470 1472 1474 1475 1477 1478 1480 1481 1482 1484 1485 1486 1487 1488 1489 1490 1491 1492 1494 1495 1496 1497 1499 1500 1501 1502 1504 1505 1505 1507 1509 1511 1512 1513
1480 1481 1481 1481 1484 1485 1472 1477 1467 1461 1456 1457 1459 1462 1464 1467 1470 1471 1473 1474 1475 1477 1478 1479 1481 1482 1483 1484 1485 1486 1486 1487 1488 1489 1490 1492 1493 1495 1496 1497 1499 1500 1501 1502 1504 1506 1507 1508 1510
1482 1485 1486 1483 1485 1475 1463 1468 1464 1457 1455 1455 1457 1459 1462 1464 1467 1469 1470 1471 1472 1474 1475 1476 1477 1478 1479 1481 1481 1482 1483 1483 1484 1485 1486 1488 1489 1490 1492 1493 1495 1496 1498 1499 1500 1502 1503 1505 1506
1480 1481 1486 1484 1476 1466 1462 1466 1459 1456 1455 1456 1457 1458 1460 1463 1465 1466 1467 1469 1470 1471 1472 1473 1474 1475 1476 1477 1478 1479 1480 1480 1480 1481 1482 1484 1485 1486 1488 1489 1491 1492 1493 1495 1496 1498 1499 1501 1502
1478 1480 1478 1483 1479 1479 1465 1457 1456 1455 1456 1457 1458 1458 1460 1461 1463 1464 1465 1466 1467 1468 1469 1470 1471 1472 1473 1474 1475 1475 1476 1476 1477 1478 1479 1480 1481 1482 1484 1485 1486 1488 1489 1490 1492 1493 1495 1496 1497
1478 1478 1482 1484 1482 1476 1461 1454 1455 1455 1455 1456 1457 1458 1459 1460 1461 1462 1463 1464 1464 1465 1466 1466 1467 1468 1469 1470 1470 1471 1472 1472 1473 1474 1474 1476 1477 1478 1479 1480 1482 1483 1484 1485 1487 1488 1490 1491 1492
1479 1480 1479 1478 1476 1476 1471 1459 1451 1450 1451 1453 1455 1456 1457 1458 1459 1459 1460 1461 1462 1462 1462 1463 1463 1464 1465 1466 1466 1467 1468 1469 1469 1470 1471 1472 1473 1474 1475 1476 1477 1478 1479 1480 1481 1483 1484 1485 1486
1472 1473 1476 1480 1476 1473 1471 1463 1452 1451 1450 1452 1454 1455 1456 1457 1457 1458 1458 1458 1458 1458 1459 1459 1460 1460 1461 1462 1463 1464 1465 1465 1465 1466 1467 1468 1468 1469 1470 1471 1472 1473 1474 1475 1476 1477 1478 1479 1480